YAOGAN 4 DEB, 35575

Orbit data source: Space-Track

YAOGAN 4 DEB, 35575 is space debris in SSO originally from a launch on Mon, 01 Dec 2008 UTC launched from the Jiuquan Satellite Launch Center, China (JSC). Debris objects in space refer to the collection of defunct objects orbiting the Earth. Examples of debris include non-operational satellites, rocket bodies, and fragments generated from explosions, collisions, or faulty payload assembly.

Loading next visibility...
Identifier
35575, 2008-061B
Orbit
SSO
Country
Flag of CNCN / PRC
Related business
Manufacturer
Unknown
Mission
Spacecraft
Bus & Motor
Unknown
Mass
Unknown
Launch date (UTC)
2008-12-01 (18 years ago)
Launch vehicle
Unknown
Launch site
Jiuquan Satellite Launch Center, China (JSC)
Object type
Payload
Rocket body
Debris
Shape & HBR
Unknown shape, 0.1 m
Radar Cross Section
Small (<0.1 m²)

Expand to show TLE details & history
Last TLE update: 4 days ago

TLE from 4 days ago
0 YAOGAN 4 DEB
1 35575U 08061B   26169.62658737  .00002486  00000-0  70450-3 0  9997
2 35575  97.7563 313.9405 0209328 176.9399 183.3126 14.34230628907707
Epoch: 2026-06-18T15:02Z
TLE epoch observation values (Epoch: 2026-06-18T15:02:17.148Z)
Latitude
0.00004°
Longitude
-178.49817°
Altitude
930.17 km
Speed
7.309 km/s
True Right ascension
20h 55m 45s
True Declination
0° 00' 00"
Sunlit
Object was in full shadow at epoch
Visualization orbit readout
Latitude
Unknown
Longitude
Unknown
Altitude
Unknown
Speed
Unknown
Apparent Right ascension
Unknown
Apparent Declination
Unknown
Sunlit
N/A
Visualization observer readout
Local Sidereal Time
00:39:53
Azimuth
Unknown
Elevation
Unknown
Doppler factor
Unknown
Orbital elements
Apogee altitude
924.448 km
Perigee altitude
624.989 km
Semi-major axis
7,152.855 km
Eccentricity
0.02093
Inclination
97.7563°
RAAN
313.9405°
Arg. of periapsis
176.9399°
True anomaly
183.17753°
Mean anomaly
183.3126°
Eccentric anomaly
183.24472°
Mean motion
3.58777 °/min
Orbital period
100.34 mins
BSTAR
0.0007045
Loading maneuver chart data...
Computing Atmospheric mass density...
Loading historical data...
Loading historical data...
Loading historical data...
Loading historical data...
Loading historical data...
Loading historical data...
Loading historical data...
Other satellites on launch #61 in the year 2008 (2008-12-01 UTC)

Documentation

Showing up to 5 results
|